Theta_e
320 319 317 318 317 318 317 317 316 316 315 314 314 313 311 311 311 312 310 311 310 312 312 312 311 310 312 312 312 313 313 311 309 310 310 311 311 312 319 321 324 325 326 326 325 324 324 323 323 323 323 322 322 321 321 321 321 322 321 320 320 319 319 319 319 318 318 317 317 317 319 318 317 316 316 316 316 316 315 314 314 314 314 313 313
320 318 318 318 316 314 316 316 317 315 314 316 313 312 312 309 310 310 310 310 311 313 311 312 310 310 311 311 310 312 309 310 309 309 312 311 312 312 315 318 322 325 326 326 326 328 325 324 325 324 324 323 323 322 321 320 321 322 322 322 321 320 319 319 319 319 318 317 318 318 318 318 318 318 317 316 316 315 315 315 314 314 314 314 313
320 319 318 319 317 316 316 316 316 315 315 315 313 314 313 312 313 311 311 311 312 310 312 311 311 312 309 310 312 310 311 308 309 308 309 311 312 311 313 315 319 323 327 327 326 326 326 325 325 326 325 325 324 323 323 322 321 321 322 322 323 321 321 320 319 319 319 318 318 318 317 317 317 319 317 316 317 316 316 315 315 315 314 314 313
320 319 319 318 317 316 315 314 316 315 315 314 313 313 314 311 309 309 310 310 311 309 309 311 313 312 309 309 308 310 310 310 309 308 310 310 312 312 312 312 314 318 322 327 327 326 326 326 328 328 326 326 326 326 325 324 323 322 322 322 322 322 321 320 320 320 319 319 319 318 318 318 317 316 316 316 317 316 316 315 315 315 315 314 314
319 319 318 318 317 317 314 315 316 315 314 314 313 311 310 311 311 309 309 309 310 309 309 308 309 313 308 310 308 311 312 309 311 310 310 310 310 311 312 312 311 313 316 319 324 327 326 326 328 329 329 326 326 326 326 326 325 324 323 322 322 323 324 321 321 321 320 319 319 319 318 318 318 318 317 317 317 316 316 316 316 315 315 314 314
320 318 318 317 317 317 316 314 313 313 313 312 312 312 310 309 309 309 311 309 309 307 308 308 308 307 307 306 306 310 310 311 310 312 310 312 311 311 311 311 311 312 313 315 318 321 326 327 327 328 328 329 327 327 327 327 327 326 326 325 324 324 324 323 323 323 322 320 320 319 319 319 319 318 319 317 316 317 317 316 316 316 316 315 315
319 320 318 316 316 315 315 316 314 311 312 311 313 311 310 312 308 309 307 307 307 306 307 306 306 309 310 308 310 309 308 311 312 311 309 311 310 310 311 310 311 311 312 312 312 315 320 325 327 327 327 328 329 328 327 327 327 327 327 327 327 325 324 323 322 322 322 322 321 320 320 320 320 319 319 319 317 317 317 317 316 316 316 316 316
318 318 318 317 316 316 316 315 312 312 312 310 310 312 311 311 309 309 309 309 306 310 306 307 305 308 308 308 308 308 309 309 310 311 311 309 310 311 311 310 310 310 310 311 311 312 316 319 323 326 327 328 328 328 328 328 328 327 327 327 327 327 326 325 324 324 323 323 322 321 321 320 320 320 319 319 319 318 318 318 317 317 317 316 316
318 317 318 317 315 316 314 314 312 313 311 310 311 312 312 312 310 308 309 310 307 308 308 305 308 308 308 307 308 308 308 310 311 311 310 309 309 309 310 311 310 309 309 310 311 311 313 315 318 321 322 325 326 328 328 329 329 329 328 327 328 329 327 326 325 325 324 324 323 322 322 322 321 320 320 320 320 319 318 318 318 318 317 316 316
320 317 318 317 317 316 315 314 313 313 313 313 314 313 313 313 312 310 311 311 309 308 308 307 306 307 307 307 308 305 308 308 309 308 308 310 310 309 310 310 310 310 310 310 310 311 311 312 314 316 315 317 322 325 327 327 327 329 329 328 329 329 328 328 326 325 324 324 323 323 323 322 322 321 321 320 320 320 319 319 318 318 318 317 317
324 319 320 317 317 316 316 315 315 315 315 314 314 313 313 312 312 312 310 312 311 308 309 307 308 308 308 308 306 306 307 306 306 307 308 309 310 311 309 310 309 309 310 310 309 309 311 311 311 311 312 313 318 321 324 326 325 327 328 329 329 330 329 327 326 325 327 325 323 323 323 323 323 322 321 321 321 321 320 319 319 319 319 319 318
326 322 321 320 318 317 318 318 317 316 315 314 313 313 312 311 311 311 311 310 309 310 310 310 310 309 307 306 305 304 304 305 305 306 307 307 308 307 308 309 308 309 308 309 308 308 310 310 308 310 311 312 314 316 320 322 322 326 327 328 328 329 328 327 328 327 327 325 325 325 324 323 323 323 322 322 321 321 321 320 320 320 320 320 319
326 326 324 321 323 321 320 318 318 316 315 315 315 314 313 312 312 311 312 311 311 311 311 311 310 309 308 305 306 305 304 304 305 306 306 307 304 304 305 305 306 306 308 308 307 308 308 309 309 308 309 310 311 311 314 317 317 323 326 328 328 329 330 329 329 326 326 327 326 326 326 325 324 323 323 322 322 322 322 321 321 321 321 321 320
325 326 326 325 322 321 320 318 317 316 316 316 315 312 312 312 312 310 310 311 310 311 311 311 307 307 306 306 305 305 306 304 304 305 305 304 304 304 304 304 304 306 307 307 307 307 307 306 307 307 307 308 309 310 311 312 313 318 323 325 328 329 330 329 330 327 328 326 328 327 326 325 325 325 323 323 323 323 323 323 322 322 322 321 322
326 325 325 326 325 323 321 319 316 316 314 314 313 312 312 312 311 311 308 306 308 309 311 311 309 304 306 305 304 303 303 302 298 299 302 303 302 302 303 302 303 304 305 304 304 305 306 306 306 306 306 306 306 308 309 309 310 311 316 318 320 325 328 329 329 328 328 327 326 326 326 326 326 327 326 324 324 323 323 323 323 323 322 322 322
326 325 325 325 324 324 323 320 318 316 315 314 313 313 312 311 310 309 309 308 306 308 309 310 311 308 306 304 301 300 303 303 296 301 301 302 301 302 301 302 302 302 301 301 303 304 305 305 305 305 305 305 306 306 307 308 309 309 309 310 312 319 323 325 327 329 327 327 327 327 327 327 326 328 326 325 326 325 324 323 323 323 322 323 323
327 326 325 325 324 324 323 321 320 317 316 315 314 314 313 312 310 309 309 311 309 305 306 308 310 312 310 303 302 299 301 303 304 309 300 300 299 301 300 300 301 301 300 301 302 303 304 304 303 303 303 304 304 305 305 306 307 307 308 308 311 315 317 322 324 326 327 328 327 325 326 327 325 328 327 324 326 327 327 325 324 324 324 323 322
327 327 325 324 324 323 321 319 318 318 316 316 316 314 313 311 311 312 311 311 312 310 307 307 308 309 310 310 311 308 306 303 306 304 305 305 305 301 301 300 300 300 300 301 301 302 302 301 302 302 302 303 303 304 304 304 304 305 306 308 313 315 317 319 323 325 326 327 327 327 326 326 327 325 328 328 326 326 328 327 325 325 324 324 323
324 326 326 324 324 323 322 320 319 317 316 316 315 314 314 313 312 311 312 311 309 309 309 311 306 306 307 308 308 307 306 305 304 303 301 303 303 303 304 300 300 300 300 300 301 300 301 301 301 301 302 302 302 303 303 303 305 306 309 311 314 315 316 316 318 320 323 325 326 326 326 325 326 326 327 328 326 325 325 325 328 326 324 324 324
323 324 326 325 324 323 322 320 318 317 315 316 316 315 313 313 312 313 312 312 311 310 310 310 309 308 306 307 306 306 306 304 304 302 301 299 302 307 306 305 301 301 300 301 301 301 301 301 301 301 301 302 302 303 303 303 302 303 304 310 314 316 316 317 317 317 319 320 323 325 325 325 325 324 325 325 326 326 324 325 326 325 325 325 325
323 322 323 325 322 323 322 320 319 317 315 314 315 315 314 313 312 311 311 311 311 311 310 310 309 309 306 304 304 304 304 303 302 301 300 299 301 302 304 303 302 303 302 302 303 302 302 303 303 302 303 302 302 302 302 302 302 303 305 309 313 316 317 317 317 317 317 317 320 322 323 324 325 325 325 325 324 325 325 326 327 327 327 326 325
323 323 323 323 323 322 322 321 320 319 313 316 315 314 314 313 313 311 312 311 311 310 310 310 310 309 308 308 304 302 301 300 300 299 299 300 298 299 301 302 302 305 307 304 303 304 304 303 302 302 302 302 302 301 302 302 302 302 303 306 309 313 315 315 316 316 317 317 317 317 320 321 323 325 325 325 325 324 324 324 325 325 326 324 324
323 323 323 323 322 320 321 321 320 315 313 313 313 314 313 313 312 311 311 311 310 309 308 309 309 308 307 307 307 307 306 304 304 300 300 298 298 301 303 303 302 303 305 307 306 306 305 303 302 302 301 302 302 301 301 301 301 301 301 303 306 308 311 314 315 314 315 316 316 316 316 317 318 321 322 323 322 323 323 324 324 324 325 324 324
322 322 322 322 320 320 318 319 317 317 316 316 315 314 314 313 313 312 311 310 310 309 308 308 307 307 307 307 307 307 306 306 307 307 304 304 304 303 302 304 304 304 306 304 305 305 305 305 303 302 302 302 302 301 301 301 301 300 300 301 304 307 310 313 314 314 314 315 314 315 316 316 317 317 318 319 321 322 322 322 323 324 325 325 325
319 320 321 321 320 319 319 320 320 318 317 317 316 316 315 313 312 310 309 309 309 308 308 308 307 307 307 308 308 307 306 306 306 306 306 305 304 301 303 304 301 302 304 303 301 302 305 305 305 302 302 301 301 300 300 300 300 300 299 299 302 304 305 308 311 312 312 313 313 313 315 315 316 316 317 318 319 320 321 321 321 322 323 324 323
317 319 321 321 320 320 320 319 319 319 318 318 316 315 314 313 312 311 310 311 309 308 308 307 306 305 306 306 306 307 307 307 307 305 305 304 302 301 301 301 301 301 303 298 298 298 300 301 303 302 301 301 301 300 299 300 299 298 298 298 300 302 303 305 308 310 311 311 312 312 312 312 314 314 314 316 317 318 319 320 320 321 322 322 323
317 318 317 317 316 317 317 318 317 316 315 315 314 313 313 312 311 311 309 307 307 307 307 307 307 306 304 305 305 304 304 306 305 305 305 304 303 302 301 298 299 299 297 301 295 299 301 303 301 301 300 300 300 299 299 298 298 298 297 298 298 299 301 304 307 309 310 311 311 311 311 312 312 313 313 312 313 314 316 317 318 319 319 319 319
314 314 314 316 316 316 315 316 316 315 314 312 312 311 311 310 309 309 310 308 309 307 306 305 304 304 303 304 303 303 304 305 305 306 306 306 305 304 302 300 297 294 297 297 296 299 301 301 298 299 300 298 299 298 298 298 298 298 296 297 297 298 300 303 306 308 309 310 310 310 311 311 312 312 312 311 311 311 311 312 312 312 312 313 314
315 315 314 313 313 313 312 310 310 311 311 310 310 309 309 308 307 307 307 305 305 305 305 304 305 305 305 304 304 305 304 305 304 304 304 304 305 305 304 302 301 297 295 295 297 296 300 301 299 294 293 296 297 296 296 296 297 296 297 297 297 297 299 302 305 308 310 310 310 310 311 311 311 311 311 310 311 311 311 311 311 312 313 313 315
311 309 309 309 308 306 308 306 305 305 304 302 302 302 303 304 304 304 303 304 303 299 300 300 302 300 299 298 299 297 299 300 302 302 301 303 301 302 303 303 302 298 297 294 295 298 300 299 301 300 293 294 294 295 294 296 296 296 296 296 297 297 299 300 303 306 307 308 309 309 309 309 309 309 309 309 309 310 311 311 311 313 312 314 315
308 307 306 304 303 301 303 301 301 301 301 299 299 297 297 299 298 298 298 299 298 297 296 296 298 299 299 299 299 299 300 300 301 301 301 301 302 302 302 302 301 300 298 297 292 297 301 299 300 300 301 300 299 298 299 296 296 297 297 297 297 297 297 297 299 301 303 305 306 306 308 308 308 309 309 308 309 310 311 310 310 311 313 313 313
304 303 302 301 300 298 297 297 295 293 293 292 293 292 292 291 291 292 291 293 294 294 293 293 297 296 296 297 297 297 297 297 299 298 299 299 300 301 301 301 301 301 300 298 295 295 300 300 301 301 302 301 301 300 301 301 300 296 296 297 297 295 296 297 297 298 301 303 305 306 306 307 307 307 307 307 308 308 308 309 309 310 311 310 310
300 299 298 297 296 295 294 293 292 291 292 290 288 288 289 288 288 289 289 290 290 289 289 290 289 290 292 294 296 296 296 297 297 297 298 298 297 298 298 298 298 298 298 297 294 294 297 300 300 299 300 299 297 295 297 298 297 298 297 297 297 297 297 298 298 297 299 300 302 303 304 305 306 306 306 306 306 307 307 308 308 308 308 308 308
297 297 295 294 292 292 292 292 290 291 291 293 288 289 289 289 288 291 289 288 288 288 287 289 288 288 289 292 292 292 292 293 293 293 294 294 294 294 294 294 295 295 296 294 293 292 291 295 294 296 296 297 295 296 295 296 296 296 296 297 298 298 298 298 298 298 298 299 301 301 303 304 304 304 305 305 305 306 307 307 306 305 305 306 306
292 292 291 291 291 292 291 290 290 289 289 288 287 290 289 289 289 289 287 288 288 288 288 287 288 287 289 289 290 290 291 291 291 290 289 289 291 292 293 293 293 294 293 293 293 290 291 291 294 293 294 294 294 294 295 296 296 297 296 296 296 297 298 298 298 298 298 299 301 302 302 303 303 303 303 304 304 304 303 304 304 304 303 303 304
291 289 291 291 291 290 290 289 289 289 289 288 288 287 288 287 287 287 287 287 286 287 287 288 288 287 288 288 289 288 288 290 290 289 288 288 290 291 290 291 292 292 292 291 292 292 291 290 292 292 293 293 293 294 295 295 295 295 295 295 296 296 296 296 297 296 297 299 300 300 301 301 302 302 302 302 303 303 303 303 303 302 302 302 302
290 290 289 289 290 291 291 291 290 289 287 286 288 288 287 285 285 286 286 286 286 287 287 287 287 287 287 287 288 287 288 288 288 287 288 288 288 287 288 288 289 290 291 291 291 291 290 289 290 292 292 292 293 293 293 293 293 293 294 294 294 294 294 295 295 296 296 298 298 298 299 299 300 300 301 301 302 302 302 302 302 302 302 302 301
289 288 289 288 288 289 289 288 288 287 286 285 285 284 284 284 285 285 285 285 284 285 286 286 285 285 285 286 286 286 286 286 286 287 287 287 287 287 287 287 287 288 289 290 290 290 290 290 290 289 291 291 290 291 292 292 291 291 292 292 292 292 292 293 293 295 295 295 294 295 296 296 297 298 299 300 301 301 301 301 301 301 300 299 299
289 288 288 288 287 288 287 287 288 288 287 287 287 286 286 285 285 285 285 286 286 285 285 284 284 284 284 285 285 285 285 286 286 286 287 286 286 286 286 286 287 287 287 288 289 289 289 289 289 290 289 290 291 289 291 292 291 291 290 289 289 291 291 291 291 293 294 294 295 296 295 295 295 296 297 298 299 300 300 300 300 300 298 298 298
288 288 287 287 286 286 286 286 286 286 286 286 286 286 285 285 285 285 285 285 285 284 284 284 284 284 285 285 284 285 286 286 286 286 285 285 286 285 285 285 286 286 287 288 288 288 288 288 288 288 289 289 290 290 291 290 289 289 290 289 288 289 290 291 292 291 292 293 292 292 294 294 294 295 296 297 298 298 298 298 297 297 296 296 297
286 286 286 286 286 285 285 285 285 286 286 286 286 286 286 286 285 285 285 284 284 284 284 284 284 284 284 284 285 285 285 286 287 287 287 288 286 285 285 285 285 285 286 287 287 287 287 287 287 288 288 287 288 288 288 288 288 288 290 290 289 289 290 290 291 292 292 291 292 292 292 293 292 292 292 291 293 294 294 295 295 295 295 296 297
285 285 285 285 285 285 285 284 284 285 286 286 288 290 290 286 284 284 284 284 284 284 283 282 283 284 285 284 285 285 285 285 286 287 288 289 289 287 286 286 285 285 285 285 285 286 286 285 286 286 285 285 287 288 287 288 289 289 289 289 287 288 289 288 288 290 291 291 290 289 291 292 291 291 291 290 291 291 291 291 292 293 294 296 297
284 284 284 284 284 284 284 284 283 284 285 287 290 291 292 291 285 283 283 283 283 283 282 283 283 283 283 284 284 284 285 285 285 287 288 288 288 288 289 288 288 286 285 285 285 285 285 284 285 285 285 285 287 288 287 287 288 288 287 287 286 286 285 284 283 287 290 288 287 288 288 290 290 289 289 290 290 290 290 290 293 294 294 296 296
283 283 283 283 283 283 283 283 283 283 285 289 290 291 291 291 289 284 283 283 283 283 282 282 282 282 282 282 283 283 284 284 284 284 285 286 287 287 287 287 288 288 288 286 284 283 284 283 283 283 284 283 284 285 286 285 285 285 286 286 286 285 285 284 285 284 288 290 288 286 286 289 289 288 288 289 290 290 291 292 294 295 295 296 296
282 283 282 283 282 282 282 282 282 283 283 289 290 290 289 289 288 285 283 282 282 282 282 281 281 281 281 282 282 283 283 283 283 283 283 282 284 285 286 286 286 286 286 287 287 285 284 283 283 282 283 283 283 284 285 284 285 285 285 285 285 285 285 284 285 285 286 288 287 286 285 287 289 288 288 289 290 291 291 293 294 295 295 296 295
282 282 282 282 282 282 282 282 282 283 284 288 288 288 288 288 287 285 281 281 281 281 281 281 281 281 281 280 280 281 281 281 281 281 282 282 283 284 284 284 284 285 286 286 286 286 286 285 284 283 284 285 284 285 286 287 285 284 284 283 284 284 284 283 284 285 286 288 286 285 284 286 289 288 287 289 290 290 290 292 294 295 296 296 296
282 282 281 282 282 282 282 282 282 282 284 287 287 287 288 287 286 284 281 282 281 281 281 280 280 280 280 280 279 279 280 280 280 282 283 283 284 284 283 283 284 284 284 285 285 285 285 285 285 285 285 286 285 286 286 286 285 285 285 284 284 284 285 285 285 286 286 287 286 285 281 285 288 286 287 288 289 289 289 292 294 295 295 295 295
281 281 280 281 281 281 281 281 281 280 282 286 286 286 287 286 285 281 281 280 280 280 279 279 279 279 279 279 279 279 279 279 281 284 285 284 283 282 282 282 283 283 283 285 286 286 286 285 285 285 285 286 288 287 287 287 287 286 286 286 286 285 284 282 282 284 284 286 286 285 283 284 287 286 286 288 288 288 289 289 292 294 294 295 295
280 280 280 280 280 280 280 280 280 280 280 284 285 286 286 285 282 280 279 278 278 278 279 279 278 279 279 279 279 279 279 279 282 285 285 285 283 282 282 282 282 282 282 283 285 286 287 287 288 288 289 289 289 290 290 290 288 288 286 284 283 284 282 281 281 283 283 285 286 286 284 283 285 285 285 286 287 287 287 288 288 291 293 294 294
279 279 279 279 280 280 280 280 279 279 278 281 284 285 285 285 282 279 278 278 278 278 278 279 279 278 279 280 280 279 279 280 283 285 286 284 282 282 282 282 281 280 280 282 283 284 286 287 287 288 288 288 288 289 289 289 289 288 284 282 284 284 282 282 280 281 283 285 286 287 283 283 285 286 285 286 287 287 287 288 288 288 290 291 293
278 278 279 280 280 280 279 279 279 277 276 278 283 284 284 284 282 280 279 278 278 279 278 278 279 279 278 279 280 280 281 282 285 285 286 284 283 282 282 281 280 279 280 282 282 283 283 283 284 284 284 285 285 285 285 288 288 287 286 285 285 283 281 281 282 282 280 282 286 287 282 283 284 285 285 282 282 285 287 286 287 285 284 284 285
Wind_Speed
6 5 5 5 4 4 4 5 3 4 3 3 2 3 2 2 2 2 2 3 1 2 3 2 0 0 0 1 1 0 0 1 2 3 3 3 3 5 7 6 4 5 8 7 8 8 8 6 7 8 7 7 7 7 7 7 9 10 9 7 8 8 7 8 8 9 9 9 10 10 11 11 10 10 9 10 9 9 9 9 9 8 9 8 8
6 5 6 5 4 3 4 5 5 4 4 5 5 4 4 3 2 1 2 3 2 4 1 2 3 1 0 1 2 4 2 2 3 3 5 3 4 4 8 8 7 6 7 8 10 13 8 9 10 10 10 9 9 9 8 9 10 11 11 11 10 10 10 10 9 10 10 11 11 12 13 13 13 11 11 11 11 11 10 11 11 11 10 10 10
6 6 5 6 5 5 5 5 5 5 5 6 4 6 5 5 4 3 3 3 5 3 1 3 3 4 2 1 4 3 3 2 1 3 3 5 5 4 5 8 8 8 7 9 11 12 11 11 10 11 11 11 12 11 11 11 10 11 12 12 14 11 12 11 11 11 12 12 13 13 13 13 14 15 13 11 12 12 13 13 13 12 12 12 12
5 5 6 6 6 6 5 5 6 5 5 5 5 5 5 4 3 3 3 3 3 2 1 2 4 4 3 3 3 3 4 3 3 3 4 4 5 5 5 5 8 9 9 9 12 13 13 13 13 13 13 13 13 13 14 14 13 12 12 13 14 13 13 13 13 13 13 13 14 14 14 13 15 15 15 15 14 14 15 15 14 14 14 13 13
5 6 6 6 6 6 5 6 6 6 5 5 5 3 2 1 1 1 1 1 1 2 1 1 3 5 3 4 3 4 4 3 4 3 4 4 5 6 5 5 5 8 10 10 10 12 14 15 15 15 15 14 15 15 15 15 14 15 14 13 15 16 16 15 14 16 14 14 15 16 16 15 15 16 16 16 16 16 16 15 15 15 16 15 14
6 5 5 5 5 6 6 6 5 5 5 4 4 4 3 2 2 1 3 2 3 3 1 3 3 3 4 4 3 5 4 4 5 6 5 5 6 5 6 6 6 5 6 10 12 12 13 16 16 16 16 17 16 16 16 17 16 16 18 17 16 16 17 17 16 17 18 18 17 16 17 17 17 17 17 18 18 17 18 17 17 17 17 17 16
5 6 6 5 5 5 6 6 5 4 5 4 5 3 3 5 3 3 3 2 2 3 2 3 3 5 4 4 6 5 3 5 6 6 5 5 4 5 5 6 5 5 6 6 8 12 13 13 17 18 18 18 19 18 18 19 18 18 19 20 19 19 19 19 19 18 18 18 19 18 18 19 19 19 19 20 20 18 19 18 18 18 18 18 18
5 5 6 6 6 6 6 5 4 5 4 4 3 4 4 4 4 3 4 5 3 5 2 4 3 5 5 4 6 5 6 5 6 6 6 4 5 6 5 6 5 6 6 6 6 8 13 14 14 16 17 18 19 20 20 20 21 20 20 20 20 21 21 20 19 21 20 20 19 20 20 20 20 20 20 21 21 19 19 20 20 19 19 20 19
5 5 6 5 6 6 5 5 4 5 5 4 5 4 4 4 4 4 4 5 4 5 5 3 5 5 5 5 6 6 6 6 6 6 5 5 6 6 6 6 6 6 6 6 6 6 10 14 14 15 17 17 18 20 22 22 22 23 21 22 20 21 23 24 22 21 21 21 20 20 21 22 21 22 21 21 22 22 22 22 22 21 20 22 22
6 5 5 5 5 5 5 5 5 5 5 5 6 4 4 5 5 4 4 3 4 4 5 4 4 5 6 6 7 6 6 6 7 6 6 7 6 6 7 6 6 6 6 6 6 6 6 10 14 16 16 16 16 18 21 24 25 25 25 24 22 23 26 23 23 23 23 22 22 23 23 22 22 23 24 23 24 23 22 22 23 23 23 23 24
6 5 5 5 5 4 4 4 5 6 5 5 4 4 3 3 5 5 3 5 5 4 6 4 4 4 5 6 5 6 6 6 6 6 6 7 8 8 5 7 5 6 6 6 6 6 7 7 6 7 9 15 15 17 19 23 24 25 26 27 25 25 25 24 27 23 21 22 23 25 25 25 25 24 25 24 24 24 24 24 24 24 24 24 25
8 6 5 5 5 5 5 5 5 5 6 5 5 5 6 5 5 5 4 3 3 4 3 4 5 4 6 7 6 6 6 7 6 7 7 7 8 6 6 6 5 6 6 6 6 6 6 7 6 7 7 10 14 15 18 20 21 24 26 28 30 29 28 27 23 24 21 26 24 25 27 25 26 26 26 26 25 26 25 25 25 26 25 26 25
8 9 7 6 5 5 6 5 6 5 5 6 7 7 6 5 4 3 5 4 4 3 4 1 3 5 6 6 7 5 7 7 8 7 7 7 5 5 6 6 6 6 7 6 5 5 6 7 7 6 7 7 9 13 16 17 18 21 25 27 32 32 31 30 29 26 27 21 25 24 24 25 28 28 29 27 27 27 27 26 27 27 27 27 27
7 7 10 8 6 5 5 5 5 5 6 6 5 4 4 4 3 3 3 5 4 3 3 2 2 4 6 6 5 6 8 5 7 7 6 5 6 6 6 7 7 7 7 6 6 6 7 7 7 7 7 7 8 8 9 10 13 17 22 25 27 33 33 32 31 30 25 27 25 21 25 27 26 29 32 31 30 30 30 29 29 29 30 31 30
8 7 7 9 10 8 5 5 5 5 5 5 4 5 5 6 6 6 4 1 3 2 3 5 5 1 0 3 6 8 2 2 2 4 6 7 5 6 7 5 9 7 7 6 6 7 7 7 8 8 9 8 8 9 9 10 13 16 19 20 20 24 30 33 35 35 32 28 27 27 24 24 27 26 29 31 32 32 32 30 30 31 32 34 32
9 8 7 6 7 8 6 6 6 5 6 6 5 6 5 5 5 6 3 3 2 5 4 5 5 2 4 3 2 1 11 4 2 6 6 5 4 7 5 6 6 6 5 7 7 6 7 7 8 8 8 8 8 8 9 10 14 17 18 19 21 25 27 29 32 34 34 34 33 29 30 25 29 26 28 31 28 32 34 34 33 32 33 33 32
9 9 8 8 7 6 7 8 7 7 6 6 6 7 7 7 6 5 6 7 6 3 2 3 5 5 4 1 3 1 5 6 7 9 2 2 5 6 5 5 6 5 5 7 6 7 8 8 8 7 9 8 8 8 8 10 10 11 14 17 18 21 23 28 30 31 33 34 34 33 33 29 31 29 28 30 30 30 30 34 33 34 33 33 33
7 8 8 7 7 6 5 5 6 6 6 6 6 6 5 5 8 7 7 6 6 4 3 2 5 5 6 4 4 5 5 3 4 8 2 5 5 3 4 4 6 6 5 7 8 8 7 8 8 9 8 8 8 8 8 9 10 9 9 11 19 21 23 25 29 31 35 36 36 34 33 35 31 36 31 27 31 32 29 31 34 34 33 34 33
7 7 7 7 7 7 7 7 7 7 6 6 6 6 7 7 5 5 7 6 3 5 6 5 0 4 5 7 7 5 3 3 6 4 10 4 1 1 5 4 5 5 6 8 9 8 8 8 9 9 8 8 8 9 9 10 11 12 15 18 21 22 23 24 25 27 29 31 33 34 33 33 34 35 34 32 31 29 30 32 33 33 34 36 36
7 6 7 7 7 6 7 7 7 7 6 6 7 7 5 4 5 7 6 6 6 6 6 5 5 4 4 7 7 6 5 3 4 7 9 11 13 7 5 4 4 7 6 7 9 9 10 9 9 9 9 9 9 9 9 10 10 10 10 17 22 23 24 24 25 25 26 28 29 31 34 33 33 33 33 34 33 31 30 30 30 29 31 33 35
6 6 6 7 7 7 7 6 6 6 6 6 6 6 7 7 6 6 7 7 6 6 5 6 5 7 3 4 3 6 6 5 4 3 6 7 11 7 9 3 4 6 6 6 8 8 9 10 9 9 8 8 8 8 9 9 9 9 9 17 21 22 23 24 24 25 25 26 29 29 30 32 33 33 33 33 33 33 33 32 31 29 31 33 33
6 6 6 6 7 7 7 7 7 6 6 7 7 6 5 6 8 9 7 6 5 6 7 6 5 3 3 4 4 3 2 2 3 3 5 7 12 9 8 11 12 9 6 6 7 9 10 8 8 8 8 9 8 8 9 10 9 9 11 16 19 22 23 23 23 23 24 26 28 29 29 31 31 32 34 34 33 32 31 32 31 31 30 32 34
5 6 7 6 6 7 7 7 7 7 7 5 6 8 9 9 5 3 4 6 6 5 5 4 4 4 3 3 4 5 6 4 5 3 5 5 7 11 10 7 8 12 5 7 7 8 10 8 8 8 8 9 8 8 8 9 11 12 16 17 17 18 21 23 24 25 25 25 27 29 29 31 30 30 31 32 35 35 35 34 33 31 32 29 30
5 5 5 6 6 5 5 5 5 5 7 6 4 4 4 3 4 5 4 5 3 3 3 4 3 3 3 4 5 5 5 6 7 7 7 8 8 11 10 9 9 7 7 3 6 8 10 11 9 9 9 8 8 8 9 9 10 15 13 15 16 18 21 22 24 24 25 27 28 28 28 30 29 30 29 30 31 33 34 35 35 35 32 32 33
5 5 5 6 5 5 4 6 7 5 4 5 5 5 4 4 4 4 3 2 3 3 3 5 5 5 5 4 3 4 6 4 4 5 5 6 7 11 10 6 11 11 7 7 5 5 9 11 9 8 8 8 8 8 8 8 9 11 13 11 17 17 17 19 22 24 24 24 25 26 26 28 28 29 29 29 30 32 33 34 35 37 36 34 34
6 6 6 6 5 6 6 4 3 4 5 5 4 4 3 4 3 4 5 5 3 3 3 2 2 3 2 3 3 4 4 3 4 4 5 6 7 8 11 9 8 13 10 4 4 5 4 6 8 8 8 8 8 7 7 9 9 12 14 12 13 16 18 17 20 22 23 24 25 26 25 27 28 29 30 29 29 30 31 31 32 32 34 35 33
5 5 4 4 3 3 3 4 4 4 3 3 3 3 3 2 2 1 1 3 4 3 2 1 1 2 3 3 4 3 4 4 3 3 4 5 6 7 9 14 14 9 8 8 3 7 10 8 7 9 8 9 7 7 8 7 10 14 13 10 9 14 16 17 19 21 22 23 24 25 26 27 28 28 28 30 29 29 29 30 31 31 31 31 31
3 4 3 4 4 4 4 4 4 4 4 4 3 3 3 2 2 1 0 2 1 1 1 1 1 3 3 3 3 4 4 4 4 5 6 5 5 5 6 8 11 17 13 12 7 8 5 8 6 8 8 7 8 7 8 9 8 11 13 9 9 10 15 16 19 20 21 22 23 24 25 25 26 26 28 29 30 30 31 32 32 32 32 31 33
5 4 5 3 4 4 6 5 4 5 5 5 5 4 4 3 1 1 1 1 1 2 2 2 0 0 1 2 2 3 3 3 3 4 5 5 5 6 5 7 7 11 13 16 15 5 8 6 5 4 4 5 6 6 6 7 9 10 8 8 9 10 12 15 19 21 21 23 23 25 26 27 28 29 30 30 30 31 32 33 33 33 32 32 32
5 4 5 6 6 5 5 5 5 5 5 4 4 4 4 4 3 3 2 1 1 2 2 3 4 3 3 3 3 4 4 4 4 5 5 6 6 5 5 5 6 9 10 14 19 9 10 5 7 8 1 5 5 7 5 8 9 11 9 9 10 11 16 19 21 22 21 23 24 25 28 29 30 32 33 33 33 34 33 33 33 32 33 33 34
6 6 6 6 6 5 6 6 6 6 6 6 6 6 4 5 4 4 4 4 3 3 4 4 3 3 3 3 3 3 4 5 5 5 5 5 5 5 5 4 5 6 9 11 14 12 4 11 6 4 10 8 7 8 8 7 10 10 10 10 11 14 18 16 20 21 25 24 25 25 26 28 30 31 33 33 34 34 35 36 35 33 32 33 34
6 6 6 6 5 6 5 6 6 6 6 4 5 5 6 5 4 4 4 5 6 4 3 4 4 4 5 5 5 5 5 5 4 4 5 5 6 6 6 7 7 6 8 10 12 21 15 9 15 11 9 12 7 8 12 8 9 12 9 10 12 15 12 11 16 19 22 26 25 27 29 32 34 35 36 36 37 37 37 37 36 34 36 35 32
6 6 6 6 6 6 6 6 6 5 5 5 4 5 5 5 4 4 4 5 5 3 3 5 4 4 4 4 5 5 5 6 5 6 5 5 5 5 5 6 7 5 6 8 12 17 19 9 7 12 10 10 13 5 10 11 9 9 9 8 10 11 11 11 12 17 19 21 23 23 25 27 29 33 34 35 35 36 37 36 37 36 33 32 33
5 7 6 5 5 6 6 5 5 6 6 6 4 5 5 5 5 4 4 4 5 4 4 5 4 4 4 4 4 4 4 5 5 5 5 5 5 5 4 5 7 6 4 7 11 13 19 19 12 8 10 8 15 8 7 12 14 9 12 11 10 11 11 11 12 13 19 19 21 23 23 25 26 28 31 31 33 34 33 35 34 30 28 28 27
5 5 6 6 6 6 7 7 6 5 5 5 4 5 5 6 5 5 5 5 5 4 5 4 4 5 5 5 5 5 4 5 5 6 5 5 4 5 6 5 7 7 5 6 9 13 17 19 17 13 11 9 10 13 10 9 12 13 15 13 12 11 11 12 13 12 16 18 24 23 24 25 26 27 27 28 27 29 29 26 28 28 29 29 28
7 5 5 6 7 7 7 5 5 5 6 5 6 6 6 5 5 5 4 4 4 4 3 4 5 5 5 5 6 5 5 5 6 6 5 4 5 4 5 5 6 8 6 6 7 10 12 17 19 12 8 12 12 9 9 10 12 13 12 13 12 13 13 12 12 13 14 18 21 23 23 23 25 26 26 27 28 24 24 26 28 31 30 29 29
6 7 6 6 6 6 7 7 7 6 6 5 6 6 5 4 4 4 4 4 3 3 3 4 4 4 5 5 6 5 5 5 6 5 5 6 5 5 6 6 5 6 7 6 8 8 11 14 17 15 12 10 11 11 8 12 13 11 12 13 13 14 14 13 11 12 17 19 20 22 23 24 25 26 25 26 27 26 27 28 29 29 28 28 28
7 6 7 6 6 7 7 6 6 6 6 6 6 6 5 5 5 4 4 3 3 3 4 4 3 3 4 5 5 5 5 5 6 6 6 7 7 6 7 8 7 7 8 8 7 9 10 13 14 18 16 15 13 9 8 8 12 16 15 14 12 11 12 13 11 9 9 10 9 10 15 17 20 25 28 26 26 27 29 29 28 28 28 27 27
7 7 6 8 6 7 7 7 7 7 6 6 5 5 5 4 4 4 4 4 5 5 4 3 3 3 3 4 4 4 4 5 6 7 8 8 7 7 7 8 8 8 9 9 9 9 10 13 14 13 15 15 12 15 10 7 10 10 13 16 19 13 9 10 15 12 10 11 13 18 17 18 22 21 22 26 28 27 27 27 27 28 28 27 27
7 7 7 8 6 7 7 7 6 6 6 6 6 5 4 4 4 4 5 5 4 3 3 3 3 3 3 3 3 4 4 5 6 7 6 8 7 7 6 6 8 9 9 9 10 9 10 11 12 13 10 13 14 10 9 8 10 11 9 11 16 18 17 14 11 11 11 12 13 11 13 16 17 23 26 27 28 30 28 28 27 26 27 27 27
7 7 6 7 8 8 7 7 6 6 7 6 4 4 5 5 5 5 4 2 1 1 2 2 2 2 3 3 4 4 6 9 10 9 9 8 7 9 8 5 7 9 10 10 9 9 10 11 13 11 12 11 10 10 13 11 11 12 11 10 14 16 15 15 16 12 9 13 12 10 12 12 13 12 11 11 13 19 21 25 23 27 26 26 27
7 7 7 7 7 7 8 7 6 6 6 4 7 10 8 6 4 1 0 0 1 1 2 3 3 4 5 5 5 9 10 10 10 10 12 13 13 9 9 9 9 9 10 11 10 9 10 12 10 11 13 12 12 11 15 12 12 13 15 12 13 12 13 15 17 13 9 11 15 14 9 8 10 12 12 12 10 12 11 12 12 16 20 28 26
8 6 7 8 7 6 7 7 7 6 6 6 11 10 9 6 3 2 2 3 2 2 3 4 5 6 5 5 6 7 8 9 9 13 13 14 14 14 14 14 12 11 12 13 13 11 11 12 12 13 11 12 11 10 11 14 12 13 13 14 14 15 15 17 19 16 7 5 6 12 14 13 13 15 15 13 12 11 11 11 20 24 26 24 26
6 6 9 7 7 5 6 6 7 7 6 8 9 8 8 10 7 4 3 3 3 4 4 4 4 5 6 6 6 5 6 8 9 9 10 13 15 15 16 15 15 15 16 13 13 13 12 12 14 12 13 13 14 13 11 11 13 15 15 15 15 15 16 14 14 16 14 11 15 16 19 13 12 14 16 13 11 11 13 19 24 23 23 27 27
6 8 7 7 6 5 6 7 7 6 4 8 10 11 11 12 11 5 3 3 4 4 4 4 4 5 5 6 6 5 5 10 8 7 8 9 13 15 14 14 13 15 16 19 19 14 12 14 14 16 14 13 15 14 14 17 16 17 15 15 15 15 14 16 14 16 16 16 18 16 18 15 13 14 15 12 12 11 13 16 22 25 27 26 25
7 7 6 7 6 6 5 5 6 5 5 9 12 12 12 12 11 7 3 4 4 4 4 4 4 5 5 6 6 6 6 6 8 9 9 10 10 11 10 9 9 10 14 16 18 19 16 13 14 16 16 13 15 16 17 15 16 16 16 16 15 16 15 16 18 18 17 12 14 15 18 17 13 13 14 14 11 12 11 17 22 23 24 26 26
7 7 6 7 6 5 5 4 5 6 7 12 12 12 12 12 12 6 4 4 4 4 4 4 4 4 5 5 4 5 7 7 7 12 12 12 12 10 11 11 9 9 9 9 9 9 10 10 12 14 15 15 15 17 16 15 16 15 14 17 19 18 17 17 16 15 14 10 13 12 16 13 12 14 14 14 11 13 11 17 22 22 24 25 26
5 5 5 5 6 5 5 5 6 6 6 12 12 13 13 13 12 6 6 6 5 4 4 4 4 4 4 5 5 6 6 6 11 19 17 14 12 13 14 13 11 9 8 8 14 14 13 12 12 14 15 17 21 20 20 19 17 16 16 16 15 15 16 13 14 11 11 10 10 11 13 14 13 14 15 13 12 13 12 10 17 21 21 24 25
6 6 5 5 4 6 5 5 6 6 5 10 13 13 14 15 9 6 5 5 4 4 5 4 4 4 4 5 6 7 7 6 12 19 20 21 12 13 13 14 13 12 11 9 12 15 17 20 23 25 27 29 29 31 31 33 24 20 17 14 15 13 14 15 15 14 15 13 10 11 12 15 13 13 14 12 13 13 13 11 9 15 20 22 24
7 5 5 6 5 5 6 6 6 5 5 9 14 14 15 16 11 6 5 4 4 4 4 4 5 4 5 10 9 7 8 8 16 20 22 17 12 12 13 15 16 15 14 11 10 10 16 17 19 21 23 24 26 28 28 26 26 20 16 15 16 15 14 16 18 16 16 14 14 9 10 11 12 10 13 12 14 11 12 9 9 10 17 18 21
6 5 5 6 6 6 5 6 7 7 5 7 13 14 15 14 9 5 5 4 4 6 6 5 5 5 5 5 11 12 11 14 21 20 22 17 11 11 12 14 15 16 15 14 14 15 14 15 12 13 12 15 14 13 15 23 23 20 15 15 15 15 15 19 17 19 17 13 10 7 13 14 14 12 12 13 13 13 9 7 7 5 5 7 8
Wind_Direction
176 186 165 190 185 181 188 194 192 190 173 222 183 198 242 237 210 241 283 274 241 252 231 233 229 276 193 231 248 284 273 139 183 199 210 212 220 238 229 221 230 250 262 272 255 248 232 238 248 253 255 253 251 254 265 270 267 285 285 255 256 254 250 251 249 248 247 246 245 245 239 242 250 247 234 234 239 238 238 243 246 231 230 241 240
181 178 170 197 193 185 200 203 200 179 177 205 213 184 209 224 227 231 230 248 243 250 253 287 310 310 257 251 280 255 236 195 180 195 209 210 223 231 241 234 226 232 245 260 260 279 286 222 232 243 248 254 254 247 244 254 264 268 268 277 246 248 253 247 248 254 254 250 249 244 251 252 252 245 233 240 240 242 239 239 238 239 237 235 238
177 176 185 192 199 184 206 204 212 196 184 205 198 193 190 192 192 204 216 224 230 253 235 264 279 295 265 246 258 267 267 260 193 199 203 218 223 228 237 246 244 236 238 245 250 258 262 257 253 247 251 250 248 251 244 246 247 248 259 267 274 249 221 231 243 247 250 254 252 253 253 255 256 240 236 245 251 246 243 242 240 238 239 239 239
184 177 184 189 198 198 201 189 212 209 192 194 191 197 189 200 189 198 215 218 242 284 284 254 268 267 286 275 281 273 256 246 246 209 216 220 228 231 234 241 245 246 243 246 245 248 254 252 258 269 258 253 251 252 246 238 228 238 246 251 260 266 257 254 233 241 248 249 253 254 253 252 255 254 253 248 245 247 249 247 243 243 242 241 243
202 187 190 192 191 193 191 197 200 197 191 193 183 182 171 165 240 169 176 197 244 270 323 256 262 268 291 281 295 286 276 264 245 244 234 227 229 230 232 234 238 246 248 247 249 249 249 256 258 260 270 260 254 255 256 253 238 237 243 241 244 252 261 252 236 223 230 239 244 251 253 252 251 257 254 252 249 251 248 242 245 248 246 245 241
187 204 192 196 197 193 188 197 192 180 178 167 173 177 183 173 209 144 214 210 228 262 305 274 265 278 282 269 273 255 262 276 260 245 244 238 229 234 238 235 236 235 239 250 250 251 252 253 258 260 261 271 265 258 258 255 252 242 237 242 245 241 245 251 260 254 241 243 246 245 245 248 248 249 254 252 251 245 246 248 246 243 245 243 242
188 188 195 191 199 203 199 199 180 168 165 183 172 185 175 198 173 197 242 262 264 271 236 250 273 284 274 278 272 271 273 257 260 261 254 247 243 240 236 242 242 239 239 240 252 253 253 255 256 257 259 261 267 262 255 256 256 251 244 246 245 245 236 235 241 247 253 246 240 241 241 243 244 246 247 250 248 247 251 250 247 249 249 245 242
180 177 185 191 195 202 206 194 178 163 172 173 161 180 197 208 217 191 223 258 270 272 237 256 254 264 266 274 268 271 270 270 262 259 251 252 256 257 249 243 244 242 238 239 242 248 250 251 254 257 259 261 264 268 265 261 262 261 255 254 251 248 240 243 250 245 246 248 246 245 245 245 244 245 245 247 249 245 246 250 249 247 249 251 249
170 171 172 188 195 204 205 192 176 171 171 176 185 193 184 208 232 222 202 232 232 259 278 265 269 263 273 271 266 264 263 255 255 251 257 246 251 250 257 255 245 243 243 244 243 247 252 253 254 256 258 260 262 264 266 265 263 264 265 261 253 248 245 256 257 251 250 247 245 243 241 246 244 241 244 246 244 243 243 243 248 247 243 244 248
172 165 162 177 188 198 202 189 177 175 177 174 201 192 197 189 227 231 212 212 235 239 260 265 262 270 275 270 269 263 257 257 251 255 250 255 249 245 241 246 250 249 247 247 249 250 254 257 258 260 260 260 260 261 263 264 265 265 265 266 261 251 251 255 256 254 256 255 250 245 243 244 243 243 244 244 244 244 238 237 242 244 243 241 243
181 174 171 169 177 193 200 199 184 183 180 187 199 197 205 213 218 239 220 222 216 222 232 235 251 256 262 263 266 260 261 261 263 256 249 243 245 246 245 248 246 253 254 252 250 253 256 258 261 260 261 258 256 258 260 261 263 267 267 267 266 263 262 257 260 259 251 254 259 256 249 245 243 243 241 242 243 245 243 243 242 241 243 243 243
184 182 184 181 183 191 199 195 202 185 180 184 202 198 208 214 231 227 242 255 242 245 234 240 256 272 274 277 261 265 266 252 251 246 248 246 246 253 254 262 256 259 255 254 256 257 259 264 261 260 263 266 263 260 259 259 260 262 265 264 265 268 268 270 267 260 255 258 247 251 255 252 248 247 242 239 242 243 243 242 241 242 240 241 244
202 187 199 195 200 197 197 197 192 188 187 199 200 206 207 203 216 206 227 243 257 224 250 223 309 297 286 279 291 252 251 245 241 248 243 244 254 256 260 267 257 258 255 254 256 259 260 261 263 264 264 264 269 267 264 265 264 264 264 264 264 265 267 267 268 269 264 258 261 249 251 254 256 252 249 246 242 240 240 239 238 237 238 241 241
213 207 196 199 209 196 201 200 190 196 197 202 205 203 191 204 201 227 218 223 241 214 219 120 273 249 298 310 290 273 256 252 249 252 257 257 243 240 248 247 253 253 260 254 257 254 255 253 256 257 258 259 263 266 270 269 265 263 265 267 266 266 267 267 268 269 270 269 257 254 260 257 246 251 251 250 246 243 241 240 240 238 238 239 239
201 204 208 202 204 209 207 195 195 189 194 204 196 203 201 212 203 208 236 275 245 271 206 186 242 187 212 330 312 331 338 290 311 280 257 254 240 238 247 249 251 247 251 258 254 254 252 253 254 253 254 254 256 258 263 264 264 267 268 270 271 273 272 271 273 271 271 267 269 261 254 259 257 251 255 252 250 248 245 243 241 239 237 238 239
196 199 204 205 203 198 192 198 200 193 194 196 199 212 206 215 210 219 194 250 222 254 210 207 210 152 294 221 261 76 314 324 301 270 231 239 224 239 227 243 258 266 277 262 260 264 264 258 256 256 257 256 253 257 259 259 261 265 267 266 268 269 270 272 272 274 273 273 271 270 268 265 259 253 254 251 248 251 248 247 244 244 242 240 237
196 197 198 201 198 202 194 200 201 195 194 201 201 213 211 212 202 199 195 212 244 245 292 212 230 226 200 305 327 332 233 286 343 299 179 236 249 237 240 244 258 267 264 266 266 263 263 265 260 257 257 254 255 253 254 258 261 261 263 264 263 263 265 267 269 271 274 276 276 273 271 270 271 266 256 256 253 247 248 250 250 248 245 243 241
199 197 198 199 195 196 202 199 201 194 194 203 210 211 218 208 210 204 211 217 227 227 261 259 224 232 246 233 207 254 296 267 8 301 300 210 239 223 246 231 238 253 250 264 263 260 256 261 258 260 256 256 257 258 254 255 256 254 256 258 259 260 263 264 266 269 272 273 274 276 276 274 271 272 272 265 256 253 248 247 250 250 247 245 243
201 196 195 199 200 193 200 203 202 200 200 201 209 212 216 216 195 196 215 218 198 244 233 251 161 255 242 252 272 280 269 297 264 303 301 323 36 243 265 226 235 235 239 246 254 258 258 251 258 256 255 252 251 249 252 253 249 251 251 254 258 261 262 263 264 266 268 272 275 277 278 279 279 277 276 276 275 267 262 256 249 249 251 252 249
201 198 194 194 203 204 202 201 194 198 191 203 210 218 214 210 195 205 211 208 205 218 242 227 217 254 197 235 248 262 274 265 256 243 276 288 295 290 245 259 242 248 237 248 254 253 259 256 255 253 250 250 246 246 247 252 253 253 255 254 258 260 262 262 263 262 264 267 271 275 277 279 280 281 281 282 279 274 265 258 257 255 255 253 249
204 198 199 196 196 203 198 194 190 193 189 204 217 213 202 203 208 206 211 214 204 216 225 238 213 240 208 261 239 251 253 248 259 225 245 281 280 275 297 289 277 271 260 242 257 256 253 256 253 254 257 253 247 246 249 252 255 254 253 256 260 262 264 266 266 266 267 270 271 273 276 279 281 281 283 283 282 283 281 280 277 269 262 255 249
203 201 200 203 198 197 195 193 192 191 188 199 205 205 209 215 213 211 211 213 210 207 216 232 229 241 215 235 238 280 301 276 242 245 265 234 270 287 286 291 288 278 275 262 252 262 265 261 259 256 253 254 249 249 248 252 254 257 257 257 259 262 266 268 269 269 270 271 272 273 276 278 278 280 282 283 285 285 285 282 279 276 268 263 257
190 201 200 196 202 195 191 193 191 187 188 192 202 203 212 216 211 193 201 211 220 215 227 245 240 249 265 238 245 244 254 272 290 250 241 280 292 275 274 262 265 291 249 244 260 261 266 265 261 257 251 253 253 251 251 253 255 255 257 259 261 261 264 267 270 271 271 271 274 275 276 277 279 280 282 282 283 283 285 285 284 282 281 275 267
191 195 200 196 191 188 195 196 195 195 202 203 206 211 203 183 189 196 206 213 220 207 217 231 235 248 252 234 238 237 240 243 246 250 248 261 270 288 297 304 285 256 287 253 239 259 267 269 256 255 253 254 255 250 254 258 258 259 261 261 262 262 265 267 270 272 273 275 275 276 277 278 279 279 280 280 280 280 280 281 283 285 284 285 285
196 195 202 195 187 189 193 204 211 194 176 167 193 192 191 191 193 198 195 196 206 201 208 219 218 221 235 245 261 262 263 275 295 284 284 289 289 292 289 293 293 300 283 279 278 241 246 270 270 256 256 254 254 252 254 257 259 259 259 264 262 264 264 267 271 274 275 275 275 275 276 277 278 280 280 281 282 281 280 281 282 283 284 285 285
184 195 195 190 190 207 207 191 168 172 170 175 173 172 167 180 176 180 191 203 182 188 213 224 220 238 269 285 269 268 276 284 284 300 297 299 293 292 303 298 274 284 294 258 265 287 268 244 261 257 259 257 257 249 256 252 261 260 257 258 264 265 267 266 269 272 274 275 276 276 275 276 277 278 280 281 280 280 281 281 281 281 282 284 286
183 187 165 163 165 148 143 152 145 131 126 127 138 147 167 158 163 185 171 172 169 170 231 244 284 266 258 241 255 252 243 247 253 289 290 284 286 293 299 302 305 293 289 288 271 236 271 273 248 267 247 254 250 255 251 256 251 255 257 259 260 260 262 265 268 272 275 277 277 277 276 276 276 276 277 278 279 279 279 281 282 283 284 285 287
139 130 157 139 131 130 120 104 106 110 109 111 109 105 96 111 104 108 54 34 70 170 220 163 303 336 328 321 322 297 301 291 265 259 257 260 279 296 301 306 304 307 309 297 280 279 215 263 274 240 246 236 252 241 251 254 264 258 257 257 258 259 255 256 261 265 269 272 275 276 275 274 274 274 276 276 275 275 276 277 278 279 280 282 284
134 132 115 94 98 100 84 80 76 77 68 58 66 81 102 84 83 92 346 8 81 67 76 97 138 244 331 325 321 310 306 308 316 317 305 298 280 276 271 270 287 294 302 306 300 288 292 179 280 282 207 251 252 257 261 254 258 261 255 255 258 260 258 254 256 259 262 267 269 271 272 274 276 277 277 277 276 277 277 277 277 277 277 277 279
104 102 98 87 78 80 93 78 77 78 88 79 73 55 52 47 42 47 13 66 84 57 53 23 348 347 322 332 322 302 292 316 310 303 305 294 289 285 288 285 290 286 290 298 296 293 285 254 212 278 272 280 273 277 251 269 261 262 262 257 259 261 262 263 263 266 267 269 270 270 273 274 275 277 278 278 278 277 277 277 277 277 276 278 277
96 92 91 88 87 74 83 78 68 69 63 60 62 62 70 77 46 48 23 54 76 43 24 28 351 15 1 351 352 339 338 326 317 306 290 285 282 284 277 279 275 273 289 289 292 287 129 297 270 220 285 282 272 279 283 269 271 261 266 264 264 265 266 266 265 267 273 275 275 273 269 269 271 271 273 275 275 276 277 277 276 275 277 278 279
86 86 85 90 89 87 76 83 78 73 72 63 75 81 75 74 74 62 19 51 56 49 11 18 20 18 15 3 351 343 334 324 305 304 305 295 290 285 280 275 267 262 268 277 274 286 289 282 292 288 280 292 288 286 288 282 278 272 268 272 271 273 275 273 272 268 270 275 273 273 273 274 275 276 277 276 276 277 279 279 279 278 277 278 279
91 88 88 89 90 95 90 81 85 87 84 68 62 82 82 83 71 86 61 62 64 39 36 12 9 20 12 2 344 334 333 318 314 311 306 303 306 305 311 309 300 298 297 290 287 290 294 284 280 297 304 306 296 282 287 292 286 285 275 270 280 280 279 279 280 275 269 270 270 270 271 272 272 275 276 277 277 277 277 278 279 279 280 280 280
86 94 95 96 92 91 91 93 84 75 69 66 56 72 72 63 51 49 59 59 55 38 37 14 352 356 353 337 320 310 304 296 298 295 290 290 283 287 281 282 285 284 275 285 286 288 290 302 294 284 291 300 292 300 293 301 301 292 287 287 279 276 277 279 279 278 273 271 271 271 269 269 270 271 273 274 276 276 277 279 280 281 280 282 281
71 89 101 94 94 90 80 74 78 78 81 80 65 71 65 63 52 33 33 38 38 22 14 351 343 348 354 338 316 310 309 304 295 288 285 282 284 286 291 289 289 288 280 260 280 286 292 293 296 299 300 301 288 303 308 297 293 298 297 293 289 285 279 276 277 277 275 272 278 276 273 271 271 271 270 270 267 269 271 270 272 272 275 277 278
88 76 82 91 84 86 95 92 85 78 65 61 61 58 64 67 68 47 28 34 32 33 16 353 347 354 340 332 312 312 308 300 296 295 288 286 296 299 295 291 287 288 282 271 256 277 287 294 297 300 303 304 298 296 301 295 294 297 294 293 287 284 286 280 274 276 276 273 272 271 271 269 270 271 272 272 271 264 262 264 269 272 271 271 271
88 84 71 78 87 82 79 76 70 65 64 60 59 51 51 72 79 71 49 45 35 20 14 357 349 347 329 313 303 310 309 302 298 302 310 319 313 309 299 295 289 286 286 278 276 273 282 284 292 296 299 287 289 297 307 307 302 292 291 289 292 291 288 284 280 277 281 279 274 270 268 267 268 267 266 267 268 268 268 268 268 268 266 266 268
84 81 88 73 81 82 78 77 79 75 64 63 67 72 52 43 56 57 64 58 53 24 14 360 338 315 300 298 301 304 305 309 312 317 323 325 324 319 312 306 303 297 297 293 284 281 279 280 286 296 301 303 304 295 308 300 303 307 304 296 289 284 290 293 285 285 288 289 287 275 273 269 265 267 271 268 264 264 266 267 267 267 267 267 267
96 92 83 85 70 83 79 75 72 74 71 65 63 58 56 53 55 52 37 34 23 18 359 333 306 291 282 283 295 303 311 317 323 324 324 321 321 315 310 307 306 306 302 301 297 291 287 288 286 283 293 294 298 304 312 304 289 286 297 307 305 298 273 270 290 289 281 275 270 272 270 270 271 270 266 265 266 265 266 266 266 266 267 268 269
90 90 92 91 83 79 78 80 76 77 72 63 54 55 55 56 52 39 39 26 11 347 314 296 289 286 288 292 296 309 321 321 321 317 318 314 315 311 309 305 307 308 304 304 303 297 293 289 284 291 288 294 299 289 289 293 293 288 282 289 293 302 305 295 274 283 288 289 287 277 269 268 265 263 262 262 262 264 264 265 265 265 264 265 266
86 88 88 88 90 82 74 77 75 67 66 58 59 63 56 45 40 38 32 20 326 311 312 309 301 299 307 314 324 326 325 319 315 310 306 307 313 315 315 313 309 310 308 304 301 299 293 292 290 285 287 287 285 300 308 307 304 299 303 292 287 288 291 295 295 286 281 285 284 283 279 270 270 267 266 259 258 260 259 258 260 260 261 263 266
89 87 86 82 84 89 88 77 72 68 63 59 55 56 60 69 62 66 41 105 343 341 344 337 338 346 342 341 332 328 328 326 324 323 324 324 320 315 314 323 320 316 310 308 306 303 299 295 289 298 300 296 299 302 300 300 301 298 293 291 291 300 300 291 288 284 291 286 286 281 276 289 285 279 272 267 261 257 258 256 254 257 259 265 267
88 87 89 84 81 81 86 86 79 68 59 52 49 50 51 62 89 70 59 21 19 15 13 10 0 349 343 340 334 334 335 332 333 330 328 325 321 320 319 318 317 315 315 311 307 306 303 298 301 303 300 299 298 301 302 308 306 306 305 307 302 298 294 296 296 298 278 265 264 291 291 287 282 280 277 269 262 256 254 247 254 256 257 260 262
87 90 81 83 83 83 87 84 76 66 58 51 57 56 55 59 63 54 43 32 23 17 13 9 356 348 342 341 335 333 333 331 329 327 324 324 324 322 320 318 315 313 310 308 310 310 311 310 304 298 300 301 304 309 312 317 315 309 304 298 294 293 295 294 296 296 307 320 307 302 294 290 275 272 274 271 266 259 252 255 256 253 258 257 257
95 83 87 87 84 82 85 86 81 71 66 55 60 55 54 53 52 54 42 36 33 22 11 8 358 351 343 337 337 334 331 333 330 323 321 319 318 312 305 304 303 302 304 302 298 292 295 290 292 292 294 300 298 298 303 301 299 295 301 299 301 298 295 292 292 299 302 308 299 292 293 294 286 276 275 276 275 265 262 257 255 255 256 254 251
92 93 89 87 86 81 82 91 93 83 65 51 52 50 50 49 46 46 34 34 32 21 16 5 359 353 344 338 336 335 334 334 326 322 319 314 314 314 314 309 303 290 290 286 282 278 274 276 280 284 289 288 287 288 290 290 293 294 295 292 293 293 293 288 287 286 287 289 285 293 288 290 287 283 280 281 272 268 260 262 259 253 255 256 256
98 95 92 90 84 86 83 89 89 69 51 46 48 46 48 49 44 48 35 34 29 24 11 6 357 351 342 332 327 324 325 328 323 330 326 323 322 319 312 307 299 294 285 283 283 284 283 277 274 277 283 284 282 285 286 286 283 280 283 286 288 287 285 285 282 274 278 272 277 280 284 290 288 284 283 284 278 272 268 268 265 258 256 253 252
82 89 78 82 86 80 75 72 76 66 45 42 43 44 45 47 44 37 37 27 23 20 7 2 352 341 333 329 330 330 329 326 325 331 332 329 323 319 313 308 303 291 282 271 278 286 284 283 281 279 281 284 287 289 290 290 289 290 288 287 286 286 286 285 284 286 282 284 277 280 286 286 287 284 286 283 283 281 277 268 267 262 251 248 249
100 91 93 83 76 77 71 67 72 69 51 37 41 41 40 41 43 31 31 25 15 18 360 343 338 336 329 336 332 328 326 320 325 333 333 333 319 315 312 310 310 308 304 301 292 286 282 279 279 282 284 288 290 290 292 293 294 294 296 293 289 289 289 290 290 291 291 294 290 278 283 286 285 290 294 292 289 285 282 277 260 260 251 248 249
105 103 103 89 73 71 73 73 66 71 52 27 41 39 39 35 36 31 19 18 4 3 354 342 340 332 326 329 328 323 320 316 330 333 334 332 321 319 319 318 317 317 313 312 307 301 295 285 280 279 282 286 287 290 293 292 291 292 295 291 292 292 287 287 290 293 294 293 290 296 296 291 296 293 293 293 288 278 277 274 271 252 253 253 252
103 102 92 94 90 74 70 72 61 61 44 29 38 40 36 31 33 30 20 8 2 2 350 341 338 330 324 318 328 329 327 329 332 334 335 334 325 322 321 319 317 315 314 315 313 313 316 312 303 297 290 287 288 288 290 291 290 290 287 289 295 293 288 293 295 300 300 293 297 336 308 303 301 299 304 306 297 294 286 292 280 277 262 250 247